EW9138 Weather Reports


Display with metric or nautical units.
time (UTC)temp
F
wind
direction
speed
MPH
gust
MPH
rain 1hr
in
rain 24hr
in
rain mn
in
humidity
%
barometer
mb
20260509135308 70 350 3.0 9.0 0.00 0.00 0.00 48 1016.4
20260509134807 70 78 3.0 9.0 0.00 0.00 0.00 48 1016.4
20260509134309 70 63 2.0 9.0 0.00 0.00 0.00 50 1016.4
20260509133808 70 53 2.0 9.0 0.00 0.00 0.00 48 1016.4
20260509133308 70 323 2.0 6.0 0.00 0.00 0.00 51 1016.4
20260509132809 70 74 2.0 6.0 0.00 0.00 0.00 56 1016.4
20260509132309 71 41 2.0 7.0 0.00 0.00 0.00 53 1016.4
20260509131807 71 153 2.0 7.0 0.00 0.00 0.00 48 1016.4
20260509131310 71 68 2.0 5.0 0.00 0.00 0.00 52 1016.4
20260509130807 72 157 2.0 7.0 0.00 0.00 0.00 49 1016.4
20260509130310 72 332 2.0 7.0 0.00 0.00 0.00 48 1016.4
20260509125809 73 318 2.0 7.0 0.00 0.00 0.00 47 1016.3
20260509125312 73 12 3.0 9.0 0.00 0.00 0.00 46 1016.3
20260509124808 73 48 3.0 9.0 0.00 0.00 0.00 46 1016.3
20260509124310 74 204 3.0 8.0 0.00 0.00 0.00 46 1016.3
20260509123808 74 85 3.0 8.0 0.00 0.00 0.00 47 1016.3
20260509123310 74 0 2.0 7.0 0.00 0.00 0.00 47 1016.3
20260509122809 74 76 2.0 7.0 0.00 0.00 0.00 44 1016.4
20260509122309 75 79 2.0 7.0 0.00 0.00 0.00 44 1016.4
20260509121808 75 21 2.0 7.0 0.00 0.00 0.00 45 1016.4
20260509121310 75 115 2.0 7.0 0.00 0.00 0.00 45 1016.5
20260509120808 74 100 2.0 7.0 0.00 0.00 0.00 46 1016.5
20260509120310 74 178 2.0 7.0 0.00 0.00 0.00 47 1016.5
20260509115808 74 70 2.0 7.0 0.00 0.00 0.00 47 1016.6
20260509115310 74 243 2.0 6.0 0.00 0.00 0.00 50 1016.6
20260509114808 74 45 2.0 6.0 0.00 0.00 0.00 49 1016.6
20260509113808 73 65 2.0 8.0 0.00 0.00 0.00 49 1016.8
20260509113310 73 67 2.0 8.0 0.00 0.00 0.00 48 1016.8
20260509112809 73 82 2.0 5.0 0.00 0.00 0.00 48 1016.9
20260509111809 73 173 2.0 5.0 0.00 0.00 0.00 51 1016.9
20260509111309 72 35 2.0 7.0 0.00 0.00 0.00 53 1017.1
20260509110808 72 18 2.0 7.0 0.00 0.00 0.00 54 1017.1
20260509110308 71 72 2.0 5.0 0.00 0.00 0.00 54 1017.1
20260509105808 71 68 2.0 5.0 0.00 0.00 0.00 56 1017.3
20260509105309 70 185 2.0 5.0 0.00 0.00 0.00 55 1017.3
20260509103808 69 217 2.0 5.0 0.00 0.00 0.00 59 1017.5
20260509103309 69 162 2.0 5.0 0.00 0.00 0.00 59 1017.5
20260509102808 68 172 2.0 5.0 0.00 0.00 0.00 60 1017.7
20260509102309 68 66 2.0 5.0 0.00 0.00 0.00 59 1017.7
20260509101808 68 79 2.0 5.0 0.00 0.00 0.00 63 1017.7
20260509100311 66 168 2.0 3.0 0.00 0.00 0.00 64 1017.8
20260509095808 66 77 2.0 3.0 0.00 0.00 0.00 64 1017.9
20260509095308 65 221 2.0 5.0 0.00 0.00 0.00 66 1017.9
20260509092808 64 222 2.0 5.0 0.00 0.00 0.00 65 1018.2
20260509092309 63 216 2.0 5.0 0.00 0.00 0.00 67 1018.2
20260509091809 63 225 2.0 5.0 0.00 0.00 0.00 67 1018.2
20260509090810 62 289 2.0 5.0 0.00 0.00 0.00 69 1018.3
20260509090309 62 286 1.0 3.0 0.00 0.00 0.00 69 1018.3
20260509085808 62 286 1.0 3.0 0.00 0.00 0.00 72 1018.4
20260509085309 61 286 2.0 5.0 0.00 0.00 0.00 71 1018.4
20260509084808 61 287 2.0 5.0 0.00 0.00 0.00 72 1018.4
20260509084308 60 295 2.0 5.0 0.00 0.00 0.00 72 1018.5
20260509083809 60 289 2.0 3.0 0.00 0.00 0.00 73 1018.5
20260509083309 60 254 2.0 5.0 0.00 0.00 0.00 75 1018.5
20260509082809 59 225 2.0 5.0 0.00 0.00 0.00 75 1018.7
20260509082310 58 320 2.0 5.0 0.00 0.00 0.00 77 1018.7
20260509081309 57 291 2.0 5.0 0.00 0.00 0.00 78 1018.8
20260509080810 57 304 2.0 3.0 0.00 0.00 0.00 78 1018.8
20260509075808 56 316 0.0 3.0 0.00 0.00 0.00 78 1018.9
20260509075309 56 280 2.0 5.0 0.00 0.00 0.00 79 1018.9
20260509074808 56 280 2.0 6.0 0.00 0.00 0.00 80 1018.9
20260509074309 55 207 2.0 6.0 0.00 0.00 0.00 80 1018.9
20260509073808 55 276 2.0 5.0 0.00 0.00 0.00 82 1018.9
20260509072309 54 283 1.0 5.0 0.00 0.00 0.00 86 1019.0
20260509071809 53 286 1.0 5.0 0.00 0.00 0.00 88 1019.0
20260509071309 53 221 0.0 2.0 0.00 0.00 0.00 89 1018.9
20260509070808 53 221 0.0 2.0 0.00 0.00 0.00 90 1018.9
20260509070309 53 221 0.0 1.0 0.00 0.00 0.00 91 1018.9
20260509065809 52 221 0.0 0.0 0.00 0.00 0.00 91 1018.9
20260509065309 52 221 1.0 3.0 0.00 0.00 0.00 92 1018.9
20260509064809 52 221 1.0 3.0 0.00 0.00 0.00 92 1018.9
20260509064309 52 221 0.0 3.0 0.00 0.00 0.00 92 1019.0
20260509062809 51 262 1.0 3.0 0.00 0.00 0.00 93 1019.1
20260509062309 51 262 1.0 3.0 0.00 0.00 0.00 93 1019.1
20260509061809 51 267 1.0 3.0 0.00 0.00 0.00 93 1019.1
20260509061309 51 268 0.0 3.0 0.00 0.00 0.00 93 1019.1
20260509060808 51 268 0.0 3.0 0.00 0.00 0.00 94 1019.1
20260509054309 50 263 0.0 3.0 0.00 0.00 0.00 94 1019.2
20260509053808 50 289 0.0 0.0 0.00 0.00 0.00 94 1019.2
20260509053309 50 289 0.0 0.0 0.00 0.00 0.00 94 1019.2
20260509051808 50 289 1.0 3.0 0.00 0.00 0.00 93 1019.2
20260509051309 50 289 1.0 3.0 0.00 0.00 0.00 94 1019.1
20260509050808 50 282 1.0 3.0 0.00 0.00 0.00 94 1019.1
20260509050309 50 263 2.0 3.0 0.00 0.00 0.00 93 1019.1
20260509045809 50 263 2.0 3.0 0.00 0.00 0.00 93 1018.9
20260509045309 50 271 1.0 5.0 0.00 0.00 0.00 93 1018.9
20260509044309 50 204 0.0 2.0 0.00 0.00 0.00 93 1018.9
20260509043809 50 203 0.0 2.0 0.00 0.00 0.00 93 1018.9
20260509043310 50 203 0.0 2.0 0.00 0.00 0.00 93 1018.9
20260509042808 50 203 0.0 2.0 0.00 0.00 0.00 93 1018.9
20260509041809 50 245 0.0 0.0 0.00 0.00 0.00 92 1018.9
20260509041309 50 245 0.0 0.0 0.00 0.00 0.00 92 1018.8
20260509040809 50 218 0.0 0.0 0.00 0.00 0.00 92 1018.8
20260509035808 50 218 0.0 2.0 0.00 0.00 0.00 92 1018.8
20260509035309 50 218 0.0 2.0 0.00 0.00 0.00 92 1018.8
20260509034809 50 218 0.0 2.0 0.00 0.00 0.00 92 1018.8
20260509034309 50 218 0.0 2.0 0.00 0.00 0.00 92 1018.8
20260509033808 50 218 0.0 2.0 0.00 0.00 0.00 92 1018.8
20260509033310 50 218 0.0 2.0 0.00 0.00 0.00 91 1018.8
20260509032809 50 218 0.0 2.0 0.00 0.00 0.00 91 1018.8
20260509031809 51 218 1.0 5.0 0.00 0.00 0.00 91 1018.8
20260509031309 51 249 0.0 5.0 0.00 0.00 0.00 91 1018.7
20260509030809 51 265 0.0 3.0 0.00 0.00 0.00 91 1018.7
20260509030309 51 268 1.0 2.0 0.00 0.00 0.00 90 1018.7
20260509025809 51 268 1.0 3.0 0.00 0.00 0.00 90 1018.7
20260509025309 51 268 0.0 3.0 0.00 0.00 0.00 90 1018.7
20260509024809 51 268 0.0 3.0 0.00 0.00 0.00 90 1018.7
20260509024310 51 262 1.0 2.0 0.00 0.00 0.00 90 1018.7
20260509023810 51 262 1.0 2.0 0.00 0.00 0.00 90 1018.7
20260509023309 51 262 2.0 5.0 0.00 0.00 0.00 90 1018.7
20260509022809 51 262 2.0 5.0 0.00 0.00 0.00 90 1018.8
20260509022310 52 276 1.0 5.0 0.00 0.00 0.00 90 1018.8
20260509021809 52 277 1.0 3.0 0.00 0.00 0.00 90 1018.8
20260509021309 52 277 0.0 3.0 0.00 0.00 0.00 90 1018.6
20260509020809 52 279 0.0 2.0 0.00 0.00 0.00 90 1018.6
20260509020309 52 279 1.0 2.0 0.00 0.00 0.00 90 1018.6
20260509015808 52 279 1.0 3.0 0.00 0.00 0.00 90 1018.5
20260509015310 52 279 0.0 3.0 0.00 0.00 0.00 90 1018.5
20260509014309 52 280 0.0 2.0 0.00 0.00 0.00 89 1018.4
20260509012309 52 280 1.0 2.0 0.00 0.00 0.00 89 1018.4
20260509011809 52 280 1.0 3.0 0.00 0.00 0.00 89 1018.4
20260509011310 52 280 2.0 5.0 0.00 0.00 0.00 89 1018.5
20260509010809 52 274 2.0 5.0 0.00 0.00 0.00 89 1018.5
20260509010310 52 284 0.0 3.0 0.00 0.00 0.00 89 1018.5
20260509005309 52 284 1.0 2.0 0.00 0.00 0.00 88 1018.4
20260509004809 53 284 1.0 2.0 0.00 0.00 0.00 88 1018.4
20260509004309 53 283 0.0 3.0 0.00 0.00 0.00 88 1018.4
20260509002310 53 288 2.0 3.0 0.00 0.00 0.00 87 1018.4
20260509001309 53 288 0.0 3.0 0.00 0.00 0.00 87 1018.4
20260509000809 53 288 0.0 2.0 0.00 0.00 0.00 86 1018.4
20260509000311 54 288 1.0 3.0 0.00 0.00 0.00 86 1018.4
20260508235809 54 288 1.0 3.0 0.00 0.00 0.00 86 1018.4
20260508235310 54 288 1.0 2.0 0.00 0.00 0.00 85 1018.4
20260508234809 54 288 1.0 2.0 0.00 0.00 0.00 84 1018.4
20260508234309 54 288 2.0 5.0 0.00 0.00 0.00 84 1018.3
20260508233809 54 288 2.0 5.0 0.00 0.00 0.00 84 1018.3
20260508233309 54 284 1.0 5.0 0.00 0.00 0.00 84 1018.3
20260508232810 54 283 1.0 3.0 0.00 0.00 0.00 84 1018.2
20260508231310 55 195 2.0 2.0 0.00 0.00 0.00 84 1018.3
20260508230809 55 195 2.0 5.0 0.00 0.00 0.00 84 1018.3
20260508225809 55 275 1.0 3.0 0.00 0.00 0.00 84 1018.4
20260508224310 55 275 0.0 3.0 0.00 0.00 0.00 83 1018.3
20260508223310 55 270 0.0 2.0 0.00 0.00 0.00 83 1018.3
20260508222809 55 270 0.0 2.0 0.00 0.00 0.00 83 1018.2
20260508221809 56 270 0.0 3.0 0.00 0.00 0.00 82 1018.2
20260508220854 56 270 1.0 5.0 0.00 0.00 0.00 81 1018.2
20260508215310 56 274 0.0 2.0 0.00 0.00 0.00 80 1018.2
20260508214310 57 274 1.0 2.0 0.00 0.00 0.00 79 1018.0
20260508213810 57 274 1.0 2.0 0.00 0.00 0.00 79 1018.0
20260508212809 57 274 1.0 3.0 0.00 0.00 0.00 78 1018.0
20260508212309 57 337 1.0 2.0 0.00 0.00 0.00 78 1018.0
20260508211810 57 0 1.0 2.0 0.00 0.00 0.00 80 1018.0
20260508211310 57 350 0.0 2.0 0.00 0.00 0.00 78 1017.8
20260508210810 57 350 0.0 2.0 0.00 0.00 0.00 79 1017.8
20260508210310 58 350 0.0 2.0 0.00 0.00 0.00 78 1017.8
20260508205810 58 350 0.0 2.0 0.00 0.00 0.00 78 1017.7
20260508205310 58 310 1.0 2.0 0.00 0.00 0.00 77 1017.7
20260508204310 58 308 0.0 2.0 0.00 0.00 0.00 77 1017.7
20260508203809 58 279 0.0 2.0 0.00 0.00 0.00 76 1017.7
20260508202310 59 280 0.0 2.0 0.00 0.00 0.00 75 1017.6
20260508201809 59 280 0.0 2.0 0.00 0.00 0.00 75 1017.6
20260508201310 59 280 0.0 2.0 0.00 0.00 0.00 75 1017.4
20260508200810 59 280 0.0 2.0 0.00 0.00 0.00 74 1017.4
20260508195255 60 280 2.0 3.0 0.00 0.00 0.00 72 1017.2
20260508194256 60 333 2.0 6.0 0.00 0.00 0.00 72 1017.0
20260508193756 60 48 2.0 7.0 0.00 0.00 0.00 72 1017.0
20260508193256 60 67 2.0 7.0 0.00 0.00 0.00 72 1017.0
20260508192755 59 49 2.0 5.0 0.00 0.00 0.00 71 1016.9
20260508192255 59 57 3.0 6.0 0.00 0.00 0.00 73 1016.9
20260508191756 59 49 3.0 7.0 0.00 0.00 0.00 73 1016.9
20260508191255 59 75 6.0 8.0 0.00 0.00 0.00 72 1016.5
20260508190755 60 69 6.0 9.0 0.00 0.00 0.00 72 1016.5
20260508190255 60 60 5.0 9.0 0.00 0.00 0.00 72 1016.5
20260508185757 60 66 5.0 10.0 0.00 0.00 0.00 73 1016.3
20260508184759 60 54 5.0 8.0 0.00 0.00 0.00 73 1016.3
20260508184256 60 56 6.0 8.0 0.00 0.00 0.00 73 1016.0
20260508183800 60 67 6.0 8.0 0.00 0.00 0.00 72 1016.0
20260508183255 60 66 5.0 8.0 0.00 0.00 0.00 74 1016.0
20260508182800 60 65 5.0 8.0 0.00 0.00 0.00 75 1015.9
20260508182255 61 66 6.0 9.0 0.00 0.00 0.00 74 1015.9
20260508181758 61 66 6.0 9.0 0.00 0.00 0.00 75 1015.9
20260508181255 61 71 5.0 8.0 0.00 0.00 0.00 75 1015.8
20260508180759 62 49 5.0 8.0 0.00 0.00 0.00 74 1015.8
20260508180256 62 59 5.0 8.0 0.00 0.00 0.00 74 1015.8
20260508175758 63 86 5.0 8.0 0.00 0.00 0.00 74 1015.7
20260508175255 63 59 5.0 8.0 0.00 0.00 0.00 72 1015.7
20260508174757 64 70 5.0 12.0 0.00 0.00 0.00 72 1015.7
20260508174255 64 72 5.0 12.0 0.00 0.00 0.00 66 1015.5
20260508173758 65 68 5.0 8.0 0.00 0.00 0.00 66 1015.5
20260508173255 65 75 5.0 8.0 0.00 0.00 0.00 64 1015.5
20260508172758 66 50 5.0 9.0 0.00 0.00 0.00 62 1015.5
20260508171757 66 75 5.0 10.0 0.00 0.00 0.00 59 1015.5
20260508171256 66 74 5.0 10.0 0.00 0.00 0.00 59 1015.5
20260508170758 66 55 5.0 10.0 0.00 0.00 0.00 59 1015.5
20260508170256 66 57 5.0 10.0 0.00 0.00 0.00 60 1015.5
20260508165757 66 57 5.0 8.0 0.00 0.00 0.00 61 1015.4
20260508165255 66 67 5.0 8.0 0.00 0.00 0.00 59 1015.4
20260508164255 66 68 5.0 9.0 0.00 0.00 0.00 57 1015.4
20260508163757 67 66 5.0 8.0 0.00 0.00 0.00 59 1015.4
20260508162758 67 53 5.0 9.0 0.00 0.00 0.00 56 1015.3
20260508162255 67 55 5.0 9.0 0.00 0.00 0.00 57 1015.3
20260508161256 68 57 5.0 9.0 0.00 0.00 0.00 55 1015.2
20260508160757 68 45 5.0 8.0 0.00 0.00 0.00 55 1015.2
20260508160256 69 49 2.0 8.0 0.00 0.00 0.00 54 1015.2
20260508155758 69 53 2.0 6.0 0.00 0.00 0.00 53 1015.1
20260508155256 70 73 2.0 5.0 0.00 0.00 0.00 52 1015.1
20260508154758 70 169 2.0 3.0 0.00 0.00 0.00 52 1015.1
20260508154256 70 55 2.0 6.0 0.00 0.00 0.00 51 1015.2
20260508153255 70 57 2.0 6.0 0.00 0.00 0.00 50 1015.2
20260508152757 70 241 2.0 5.0 0.00 0.00 0.00 54 1015.2
20260508152255 70 177 2.0 6.0 0.00 0.00 0.00 53 1015.2
20260508151255 71 194 2.0 6.0 0.00 0.00 0.00 51 1015.3
20260508150759 71 202 2.0 5.0 0.00 0.00 0.00 52 1015.3
20260508150256 71 322 2.0 6.0 0.00 0.00 0.00 54 1015.3
20260508145759 71 103 2.0 6.0 0.00 0.00 0.00 52 1015.3
20260508144758 70 167 2.0 6.0 0.00 0.00 0.00 52 1015.3
20260508144255 70 319 2.0 6.0 0.00 0.00 0.00 48 1015.5
20260508143256 70 186 2.0 5.0 0.00 0.00 0.00 50 1015.5
20260508142757 70 80 2.0 3.0 0.00 0.00 0.00 51 1015.5
20260508142255 70 214 2.0 5.0 0.00 0.00 0.00 52 1015.5
20260508141757 70 215 2.0 6.0 0.00 0.00 0.00 50 1015.5
20260508141256 70 269 2.0 6.0 0.00 0.00 0.00 51 1015.6
20260508140758 70 182 2.0 7.0 0.00 0.00 0.00 48 1015.6
20260508140256 70 178 2.0 7.0 0.00 0.00 0.00 49 1015.6